Location: Rounton
(54.4000°N, 1.3500°W)
Time: 05:12:39
(UTC+00:00)

S-56A Canister/Altair - Pass Details

Date: 06 December 2021
Orbit: 633 x 2499 km, 38.9° (Epoch: 17 January)

Event Time Altitude Azimuth Distance (km) Brightness Sun altitude
Rises 23:31:42 0° 227° (SW) 5,398 - -57.9°
Reaches altitude 10° 23:36:30 10° 216° (SW) 4,065 - -58.0°
Maximum altitude 23:43:51 23° 170° (S) 2,610 - -58.1°
Drops below altitude 10° 23:49:27 10° 121° (ESE) 2,997 - -58.2°
Sets 23:52:22 0° 106° (ESE) 3,705 - -58.2°
